Find Starlink 3624

NORAD ID: 51773 Int'l Des: 2022-017 Owner: SPXS Country: US Constellation: starlink operational
LEOCIRCULAR

現在のビュー

3D地球を読み込み中...

About Starlink 3624

Starlink 3624 (NORAD 51773) is a starlink constellation satellite (v1.5) launched Feb 25, 2022 by SPXS of US. It operates in LEO, CIRCULAR orbit with a mass of 297.00 kg.

次回通過

Passes for default location (London). Set your location on the main map for personalized predictions.

高度履歴

Loading altitude history...

軌道要素

1 51773U 22017F 26230.53399081 .00010846 00000-0 67343-3 0 9991
2 51773 53.1873 331.9667 0001129 79.2895 280.8224 15.10183099247040
Epoch: Aug 18, 2026 • Age: 11 hours

現在のステータス

高度 539.5 km
遠地点 / 近地点 N/A
速度 7.60 km/s
衛星直下点 44.73°N, 46.91°E
打ち上げ日 Feb 25, 2022
運用期間 4.4 years
タイプ internet

技術仕様

分類 Payload
質量 297.00 kg
乾燥質量 275.00 kg
総質量 297.00 kg
長さ 0.20 m
直径 2.80 m
スパン 9.00 m
形状 Box + pan
製造者 SPXS
バスタイプ Starlink
フェーズステータス In Orbit
所有者/国 SPXS/US

Most Searched